Weather History for KMIB - December, 2012

Change the Weather History Date:

Friday, December 21, 2012

  Actual Average Record
Temperature  
Mean Temperature 6 °F -  
Max Temperature 20 °F 19 °F 39 °F (2005)
Min Temperature -8 °F 4 °F -22 °F (2008)
Degree Days  
Heating Degree Days 59    
Moisture  
Dew Point 0 °F    
Average Humidity 83    
Maximum Humidity 88    
Minimum Humidity 75    
Precipitation  
Precipitation 0.13 in - - ()
Sea Level Pressure  
Sea Level Pressure 30.16 in    
Wind  
Wind Speed 4 mph (SSE)    
Max Wind Speed 22 mph    
Max Gust Speed -    
Visibility 8 miles    
Events      
Averages and records for this station are not official NWS values.
T = Trace of Precipitation, MM = Missing Value Source: NWS Daily Summary

Daily Weather History Graph

Daily Weather History Graph

Search for Another Location

Airport or City:

Trip Planner

Search our weather history database for the weather conditions in past years. The results will help you decide how hot, cold, wet, or windy it might be!

Date:

Astronomy

Dec. 21, 2012 Rise Set
Actual Time 8:34 AM CST 4:53 PM CST
Civil Twilight 7:57 AM CST 5:30 PM CST
Nautical Twilight 7:17 AM CST 6:10 PM CST
Astronomical Twilight 6:39 AM CST 6:48 PM CST
Moon 12:59 PM CST (12/21) 2:02 AM CST (12/21)
Length of Visible Light 9h 32m
Length of Day
8h 18m
Waxing Gibbous, 65% of the Moon is Illuminated
Dec 21
Waxing Gibbous
Dec 28
Full
Jan 4
Last Quarter
Jan 11
New
Jan 18
First Quarter

Hourly Weather History & Observations

Time (CST) Temp. Windchill Dew Point Humidity Pressure Visibility Wind Dir Wind Speed Gust Speed Precip Events Conditions
12:55 AM -6.3 °F - -10.8 °F 81% 30.25 in 10.0 mi Calm Calm - N/A   Clear
1:55 AM -8.9 °F -18.0 °F -13.5 °F 80% 30.25 in 10.0 mi SSE 3.5 mph - N/A   Clear
2:44 AM -5.8 °F -16.7 °F -9.4 °F 84% 30.24 in 5.0 mi SE 4.6 mph - N/A   Clear
2:48 AM -5.8 °F -16.7 °F -9.4 °F 84% 30.24 in 3.0 mi SE 4.6 mph - N/A   Haze
2:51 AM -5.8 °F -16.7 °F -9.4 °F 84% 30.24 in 2.5 mi SE 4.6 mph - N/A   Haze
2:53 AM -5.8 °F -14.5 °F -9.4 °F 84% 30.24 in 2.5 mi SSE 3.5 mph - N/A   Haze
2:55 AM -5.6 °F -14.3 °F -9.9 °F 82% 30.24 in 2.5 mi SSE 3.5 mph - N/A   Haze
2:56 AM -5.8 °F -14.5 °F -9.4 °F 84% 30.24 in 2.5 mi SSE 3.5 mph - N/A   Haze
2:58 AM -5.8 °F -16.7 °F -11.2 °F 77% 30.24 in 3.0 mi SE 4.6 mph - N/A   Haze
3:55 AM -5.1 °F -15.8 °F -9.2 °F 82% 30.24 in 10.0 mi SE 4.6 mph - N/A   Clear
4:55 AM -3.6 °F -15.9 °F -7.6 °F 83% 30.21 in 10.0 mi SE 5.8 mph - N/A   Clear
5:55 AM -1.8 °F -12.0 °F -5.8 °F 83% 30.20 in 10.0 mi SE 4.6 mph - N/A   Clear
6:55 AM -0.8 °F -12.5 °F -4.5 °F 84% 30.20 in 10.0 mi SE 5.8 mph - N/A   Clear
7:55 AM 0.3 °F -7.5 °F -3.3 °F 85% 30.19 in 10.0 mi SE 3.5 mph - N/A   Clear
8:55 AM -0.0 °F -9.9 °F -3.8 °F 84% 30.17 in 10.0 mi SE 4.6 mph - N/A   Clear
9:55 AM 3.4 °F -4.0 °F 0.3 °F 87% 30.15 in 10.0 mi SE 3.5 mph - N/A   Clear
10:55 AM 7.5 °F - 4.6 °F 88% 30.17 in 10.0 mi Calm Calm - N/A   Clear
11:55 AM 10.6 °F -0.2 °F 7.5 °F 87% 30.14 in 10.0 mi SE 6.9 mph - N/A   Clear
12:55 PM 14.7 °F 9.0 °F 10.2 °F 82% 30.12 in 10.0 mi SSE 3.5 mph - 0.13 in   Clear
1:55 PM 17.1 °F 7.6 °F 11.3 °F 78% 30.10 in 10.0 mi SSE 6.9 mph - N/A   Clear
2:55 PM 20.7 °F 13.0 °F 13.8 °F 75% 30.07 in 10.0 mi South 5.8 mph - N/A   Clear
3:55 PM 17.8 °F 10.9 °F 12.2 °F 79% 30.08 in 6.0 mi South 4.6 mph - N/A   Haze
4:55 PM 13.3 °F 3.0 °F 9.5 °F 85% 30.08 in 10.0 mi South 6.9 mph - N/A   Clear
5:55 PM 12.7 °F 6.7 °F 9.1 °F 86% 30.08 in 10.0 mi South 3.5 mph - N/A   Clear
6:55 PM 9.7 °F -0.1 °F 6.1 °F 85% 30.08 in 10.0 mi WNW 5.8 mph - N/A   Clear
7:55 PM 8.4 °F -3.9 °F 5.0 °F 86% 30.08 in 10.0 mi WNW 8.1 mph - N/A   Clear
8:55 PM 12.6 °F 0.2 °F 8.4 °F 83% 30.09 in 10.0 mi WNW 9.2 mph - N/A   Clear
9:55 PM 13.3 °F -0.5 °F 9.5 °F 85% 30.10 in 10.0 mi NW 11.5 mph - N/A   Clear
10:55 PM 16.7 °F -0.7 °F 11.8 °F 81% 30.10 in 10.0 mi NNW 21.9 mph - N/A   Clear
11:55 PM 12.7 °F -4.6 °F 8.6 °F 84% 30.12 in 10.0 mi NNW 18.4 mph - N/A   Partly Cloudy